Preview of NWS' New Version of Forecast
This preview is not operational and should not be used for support decisions.

Regional Weather Roundup (RWR)

Issued by National Weather Service (NWS)

                            
000
ASUS43 KBIS 182102
RWRND 

NORTH DAKOTA REGIONAL WEATHER ROUNDUP
NATIONAL WEATHER SERVICE BISMARCK ND
300 PM CST MON FEB 18 2019

NOTE: "FAIR" INDICATES FEW OR NO CLOUDS BELOW 12,000 FEET WITH NO
SIGNIFICANT WEATHER AND/OR OBSTRUCTIONS TO VISIBILITY.


NDZ001>003-009>011-017-182200-
NORTHWEST NORTH DAKOTA
  
CITY           SKY/WX    TMP DP  RH WIND       PRES   REMARKS
WILLISTON      CLOUDY     5  -3  69 W6        30.42S WCI  -6          
MINOT          CLOUDY     8  -2  63 N5        30.44S WCI   0          
MINOT AFB      SUNNY      5  -2  71 CALM      30.43F                  
$$
 
NDZ018>021-031>035-040>046-182200-
SOUTHWEST NORTH DAKOTA
  
CITY           SKY/WX    TMP DP  RH WIND       PRES   REMARKS
BISMARCK       PTSUNNY    9   0  67 SW5       30.47S WCI   1          
DICKINSON      CLOUDY     5  -3  69 W8        30.33F WCI  -8          
GARRISON         N/A      3  -1  83 CALM      30.42F                  
HETTINGER ARPT MOSUNNY    2  -4  76 W8        30.36F WCI -12          
$$
 
NDZ004>008-012>016-024-026-027-054-182200-
NORTHEAST NORTH DAKOTA
  
CITY           SKY/WX    TMP DP  RH WIND       PRES   REMARKS
GRAND FORKS    PTSUNNY    0  -7  72 NW9       30.55F WCI -15          
GRND FRKS AFB  SUNNY      2  -7  65 N6        30.54F WCI  -9          
DEVILS LAKE    SUNNY     -1  -6  79 NW3       30.49F                  
$$
 
NDZ022-023-025-028>030-036>039-047>053-182200-
SOUTHEAST NORTH DAKOTA
  
CITY           SKY/WX    TMP DP  RH WIND       PRES   REMARKS
FARGO          SUNNY      2  -4  76 N8        30.54F WCI -12          
JAMESTOWN      CLOUDY     4  -3  73 N6        30.47F WCI  -7          
$$